OK1HOL-14 Weather Reports


Display with metric or nautical units.
time (UTC)temp
F
wind
direction
speed
MPH
gust
MPH
rain 1hr
in
rain 24hr
in
rain mn
in
humidity
%
barometer
mb
20260903104601 72 0.0 0.0 0.00 0.00 0.00 47 1018.7
20260903103608 71 0.0 0.0 0.00 0.00 0.00 48 1018.8
20260903102600 72 0.0 0.0 0.00 0.00 0.00 47 1019.0
20260903101600 71 0.0 0.0 0.00 0.00 0.00 47 1019.0
20260903100608 71 0.0 0.0 0.00 0.00 0.00 47 1018.9
20260903095600 71 0.0 0.0 0.00 0.00 0.00 49 1019.1
20260903094600 70 0.0 0.0 0.00 0.00 0.00 50 1019.2
20260903093608 70 0.0 0.0 0.00 0.00 0.00 52 1019.3
20260903092600 69 0.0 0.0 0.00 0.00 0.00 54 1019.2
20260903091600 68 0.0 0.0 0.00 0.00 0.00 54 1019.3
20260903090608 68 0.0 0.0 0.00 0.00 0.00 54 1019.2
20260903085600 68 0.0 0.0 0.00 0.00 0.00 53 1019.2
20260903084600 68 0.0 0.0 0.00 0.00 0.00 55 1019.1
20260903083608 67 0.0 0.0 0.00 0.00 0.00 56 1019.2
20260903082600 67 0.0 0.0 0.00 0.00 0.00 56 1019.4
20260903081600 66 0.0 0.0 0.00 0.00 0.00 59 1019.3
20260903080608 66 0.0 0.0 0.00 0.00 0.00 61 1019.3
20260903075600 65 0.0 0.0 0.00 0.00 0.00 62 1019.4
20260903074600 65 0.0 0.0 0.00 0.00 0.00 65 1019.4
20260903073608 64 0.0 0.0 0.00 0.00 0.00 68 1019.5
20260903072600 64 0.0 0.0 0.00 0.00 0.00 71 1019.5
20260903071600 63 0.0 0.0 0.00 0.00 0.00 77 1019.5
20260903070608 63 0.0 0.0 0.00 0.00 0.00 75 1019.4
20260903065600 62 0.0 0.0 0.00 0.00 0.00 77 1019.5
20260903064600 62 0.0 0.0 0.00 0.00 0.00 77 1019.5
20260903063608 61 0.0 0.0 0.00 0.00 0.00 79 1019.5
20260903062600 61 0.0 0.0 0.00 0.00 0.00 79 1019.4
20260903061600 60 0.0 0.0 0.00 0.00 0.00 81 1019.3
20260903060608 59 0.0 0.0 0.00 0.00 0.00 84 1019.2
20260903055600 59 0.0 0.0 0.00 0.00 0.00 85 1019.2
20260903054559 59 0.0 0.0 0.00 0.00 0.00 86 1019.2
20260903053607 59 0.0 0.0 0.00 0.00 0.00 85 1019.1
20260903052559 58 0.0 0.0 0.00 0.00 0.00 85 1019.1
20260903051559 58 0.0 0.0 0.00 0.00 0.00 86 1019.1
20260903050607 58 0.0 0.0 0.00 0.00 0.00 86 1019.0
20260903045559 58 0.0 0.0 0.00 0.00 0.00 86 1018.9
20260903044559 58 0.0 0.0 0.00 0.00 0.00 86 1019.1
20260903043607 58 0.0 0.0 0.00 0.00 0.00 85 1019.0
20260903042559 58 0.0 0.0 0.00 0.00 0.00 85 1018.9
20260903041600 58 0.0 0.0 0.00 0.00 0.00 85 1018.9
20260903040607 58 0.0 0.0 0.00 0.00 0.00 84 1018.8
20260903035559 59 0.0 0.0 0.00 0.00 0.00 82 1018.8
20260903034559 59 0.0 0.0 0.00 0.00 0.00 82 1018.7
20260903033607 59 0.0 0.0 0.00 0.00 0.00 81 1018.8
20260903032559 59 0.0 0.0 0.00 0.00 0.00 82 1018.8
20260903031559 59 0.0 0.0 0.00 0.00 0.00 81 1018.9
20260903030608 59 0.0 0.0 0.00 0.00 0.00 81 1018.9
20260903025559 59 0.0 0.0 0.00 0.00 0.00 81 1018.9
20260903024559 59 0.0 0.0 0.00 0.00 0.00 80 1018.9
20260903023607 59 0.0 0.0 0.00 0.00 0.00 80 1018.8
20260903022559 59 0.0 0.0 0.00 0.00 0.00 80 1018.8
20260903021559 59 0.0 0.0 0.00 0.00 0.00 80 1018.7
20260903020623 59 0.0 0.0 0.00 0.00 0.00 81 1018.7
20260903015557 59 0.0 0.0 0.00 0.00 0.00 81 1018.7
20260903014605 59 0.0 0.0 0.00 0.00 0.00 80 1018.6
20260903013557 59 0.0 0.0 0.00 0.00 0.00 80 1018.7
20260903012557 59 0.0 0.0 0.00 0.00 0.00 80 1018.8
20260903011605 59 0.0 0.0 0.00 0.00 0.00 81 1018.7
20260903010557 59 0.0 0.0 0.00 0.00 0.00 80 1018.7
20260903005557 59 0.0 0.0 0.00 0.00 0.00 80 1018.8
20260903004605 59 0.0 0.0 0.00 0.00 0.00 80 1018.8
20260903003557 59 0.0 0.0 0.00 0.00 0.00 79 1018.8
20260903002557 59 0.0 0.0 0.00 0.00 0.00 79 1018.8
20260903001605 59 0.0 0.0 0.00 0.00 0.00 79 1018.8
20260903000557 59 0.0 0.0 0.00 0.00 0.00 79 1018.8
20260902235557 59 0.0 0.0 0.00 0.00 0.00 78 1018.8
20260902234605 60 0.0 0.0 0.00 0.00 0.00 78 1018.8
20260902233557 60 0.0 0.0 0.00 0.00 0.00 78 1018.8
20260902232557 60 0.0 0.0 0.00 0.00 0.00 77 1018.8
20260902231605 61 0.0 0.0 0.00 0.00 0.00 76 1018.8
20260902230557 61 0.0 0.0 0.00 0.00 0.00 75 1018.8
20260902225557 61 0.0 0.0 0.00 0.00 0.00 75 1018.9
20260902224605 62 0.0 0.0 0.00 0.00 0.00 74 1018.8
20260902223557 62 0.0 0.0 0.00 0.00 0.00 73 1018.9
20260902222557 62 0.0 0.0 0.00 0.00 0.00 73 1018.9
20260902221605 63 0.0 0.0 0.00 0.00 0.00 72 1018.9
20260902220557 63 0.0 0.0 0.00 0.00 0.00 72 1018.9
20260902215557 63 0.0 0.0 0.00 0.00 0.00 72 1018.9
20260902214605 63 0.0 0.0 0.00 0.00 0.00 72 1018.8
20260902213557 63 0.0 0.0 0.00 0.00 0.00 71 1018.8
20260902212557 63 0.0 0.0 0.00 0.00 0.00 71 1018.8
20260902211604 64 0.0 0.0 0.00 0.00 0.00 70 1018.8
20260902210556 64 0.0 0.0 0.00 0.00 0.00 70 1018.8
20260902205556 64 0.0 0.0 0.00 0.00 0.00 70 1018.8
20260902204604 64 0.0 0.0 0.00 0.00 0.00 69 1018.7
20260902203556 65 0.0 0.0 0.00 0.00 0.00 69 1018.8
20260902202556 65 0.0 0.0 0.00 0.00 0.00 68 1018.7
20260902201604 66 0.0 0.0 0.00 0.00 0.00 68 1018.6
20260902200556 66 0.0 0.0 0.00 0.00 0.00 67 1018.5
20260902195556 66 0.0 0.0 0.00 0.00 0.00 67 1018.6
20260902194604 66 0.0 0.0 0.00 0.00 0.00 66 1018.5
20260902193556 66 0.0 0.0 0.00 0.00 0.00 65 1018.6
20260902192556 67 0.0 0.0 0.00 0.00 0.00 64 1018.6
20260902191604 67 0.0 0.0 0.00 0.00 0.00 63 1018.5
20260902190556 67 0.0 0.0 0.00 0.00 0.00 63 1018.5
20260902185556 68 0.0 0.0 0.00 0.00 0.00 61 1018.5
20260902184604 68 0.0 0.0 0.00 0.00 0.00 59 1018.5
20260902183556 69 0.0 0.0 0.00 0.00 0.00 57 1018.3
20260902182556 70 0.0 0.0 0.00 0.00 0.00 56 1018.3
20260902181604 70 0.0 0.0 0.00 0.00 0.00 52 1018.2
20260902180556 71 0.0 0.0 0.00 0.00 0.00 51 1017.9
20260902175556 71 0.0 0.0 0.00 0.00 0.00 51 1017.8
20260902174604 71 0.0 0.0 0.00 0.00 0.00 50 1017.7
20260902173556 72 0.0 0.0 0.00 0.00 0.00 49 1017.7
20260902172556 72 0.0 0.0 0.00 0.00 0.00 49 1017.7
20260902171604 73 0.0 0.0 0.00 0.00 0.00 48 1017.7
20260902170556 73 0.0 0.0 0.00 0.00 0.00 46 1017.6
20260902165556 74 0.0 0.0 0.00 0.00 0.00 45 1017.6
20260902164604 74 0.0 0.0 0.00 0.00 0.00 44 1017.6
20260902163556 74 0.0 0.0 0.00 0.00 0.00 44 1017.6
20260902162556 74 0.0 0.0 0.00 0.00 0.00 44 1017.6
20260902161604 75 0.0 0.0 0.00 0.00 0.00 43 1017.6
20260902160556 75 0.0 0.0 0.00 0.00 0.00 43 1017.6
20260902155555 76 0.0 0.0 0.00 0.00 0.00 42 1017.6
20260902154603 77 0.0 0.0 0.00 0.00 0.00 42 1017.6
20260902153555 77 0.0 0.0 0.00 0.00 0.00 41 1017.6
20260902152555 77 0.0 0.0 0.00 0.00 0.00 42 1017.7
20260902151603 77 0.0 0.0 0.00 0.00 0.00 43 1017.8
20260902150555 76 0.0 0.0 0.00 0.00 0.00 44 1018.0
20260902145555 77 0.0 0.0 0.00 0.00 0.00 44 1018.0
20260902144603 77 0.0 0.0 0.00 0.00 0.00 42 1018.1
20260902143555 77 0.0 0.0 0.00 0.00 0.00 42 1018.2
20260902142555 77 0.0 0.0 0.00 0.00 0.00 43 1018.2
20260902141603 76 0.0 0.0 0.00 0.00 0.00 42 1018.3
20260902140619 77 0.0 0.0 0.00 0.00 0.00 42 1018.4
20260902135554 77 0.0 0.0 0.00 0.00 0.00 43 1018.4
20260902134554 76 0.0 0.0 0.00 0.00 0.00 44 1018.5
20260902133602 76 0.0 0.0 0.00 0.00 0.00 46 1018.5
20260902132554 75 0.0 0.0 0.00 0.00 0.00 47 1018.7
20260902131554 75 0.0 0.0 0.00 0.00 0.00 46 1018.7
20260902130601 75 0.0 0.0 0.00 0.00 0.00 47 1018.8
20260902125553 74 0.0 0.0 0.00 0.00 0.00 48 1019.0
20260902124553 74 0.0 0.0 0.00 0.00 0.00 48 1019.1
20260902123601 74 0.0 0.0 0.00 0.00 0.00 47 1019.1
20260902122554 74 0.0 0.0 0.00 0.00 0.00 47 1019.3
20260902121553 74 0.0 0.0 0.00 0.00 0.00 47 1019.3
20260902120601 74 0.0 0.0 0.00 0.00 0.00 49 1019.3
20260902115553 73 0.0 0.0 0.00 0.00 0.00 51 1019.4
20260902114553 73 0.0 0.0 0.00 0.00 0.00 49 1019.5
20260902113601 74 0.0 0.0 0.00 0.00 0.00 49 1019.4
20260902112553 74 0.0 0.0 0.00 0.00 0.00 48 1019.5
20260902111553 74 0.0 0.0 0.00 0.00 0.00 48 1019.6
20260902110601 73 0.0 0.0 0.00 0.00 0.00 48 1019.7
20260902105553 73 0.0 0.0 0.00 0.00 0.00 50 1019.9